Tracking 25953 objects as of 16-Aug-2022
HD Live streaming from Space Station
objects crossing your sky now

STARLINK-4140

Track STARLINK-4140 now!
10-day predictions
STARLINK-4140 is classified as:


NORAD ID: 53259
Int'l Code: 2022-086T
Perigee: 355.4 km
Apogee: 358.5 km
Inclination: 53.2 °
Period: 91.5 minutes
Semi major axis: 6727 km
RCS: Unknown
Launch date: July 24, 2022
Source: United States (US)
Launch site: AIR FORCE EASTERN TEST RANGE (AFETR)
aabbcc
Your satellite tracking list
Your tracking list is empty




NASA's NSSDC Master Catalog

Two Line Element Set (TLE):
1 53259U 22086T   22227.91667824  .00027141  00000-0  19741-3 0  9990
2 53259  53.2191 292.5691 0002302  18.4056  69.4641 15.73171132  1307
Source of the keplerian elements: AFSPC